DateTimeUTC,F1_A11,F1_S11,BsB_S11,BsG_S11,BsR_S11,BbsB_S11,BbsG_S11,BbsR_S11,BaB_A11,BaG_A11,BaR_A11,Tu_S11,T_S11,Uu_S11,U_S11,P_S11,T1_A11
2021-09-26T21:00:00Z,00000200,21000000,,,,,,,0000.32,0000.30,0000.23,16.7,23.8,,00.0,0670.9,30.9
2021-09-26T21:01:00Z,00000200,21000000,,,,,,,0000.17,0000.47,-000.14,16.7,23.8,,00.0,0670.9,30.9
2021-09-26T21:02:00Z,00000200,21000000,,,,,,,0000.16,-000.15,-000.12,16.7,23.8,,00.0,0670.9,30.9
2021-09-26T21:03:00Z,00000200,61000000,,,,,,,0000.45,0000.45,0000.31,16.7,23.8,,00.0,0670.9,30.9
2021-09-26T21:04:00Z,00000200,41000000,0002.11,0001.69,0000.79,-000.43,0000.35,-000.17,0000.33,0000.06,0000.51,17.1,23.7,,00.0,0671.8,30.9
2021-09-26T21:05:00Z,00000200,01000000,0002.09,0001.21,0000.72,0000.34,0000.13,0000.06,0000.61,0000.76,0000.15,17.2,23.7,,00.0,0671.8,30.9
2021-09-26T21:06:00Z,00000200,01000000,0001.33,0001.46,0000.84,-000.23,0000.27,0000.27,0000.22,0000.27,0000.20,17.2,23.7,,00.0,0671.9,30.9
2021-09-26T21:07:00Z,00000200,01000000,0002.64,0000.94,0000.79,0000.33,0000.49,0000.17,0000.39,0000.42,-000.02,17.1,23.7,,00.0,0671.9,30.9
2021-09-26T21:08:00Z,00000200,01000000,0002.81,0001.46,0000.88,0000.29,0000.69,0000.26,0000.64,0000.60,0000.45,17.0,23.6,,00.0,0671.9,30.8
2021-09-26T21:09:00Z,00000200,01000000,0002.80,0001.44,0000.60,-000.19,0000.46,-000.08,0000.03,-000.28,-000.21,16.9,23.6,,00.0,0671.9,30.8
2021-09-26T21:10:00Z,00000200,01000000,0001.84,0001.59,0000.78,-000.45,0000.54,0000.32,0000.69,0000.78,0000.76,16.9,23.6,,00.0,0671.8,30.8
2021-09-26T21:11:00Z,00000200,01000000,0002.06,0001.86,0001.02,0000.28,0000.32,0000.37,0000.67,0000.26,0000.46,16.8,23.5,,00.0,0671.8,30.8
2021-09-26T21:12:00Z,00000200,01000000,0003.16,0002.43,0001.15,0000.85,0000.31,0000.16,0000.44,0000.64,0000.36,16.8,23.5,,00.0,0671.9,30.8
2021-09-26T21:13:00Z,00000200,01000000,0003.80,0002.93,0001.46,0000.33,0000.38,0000.36,0001.11,0000.91,0000.60,16.8,23.5,,00.0,0671.9,30.8
2021-09-26T21:14:00Z,00000200,01000000,0003.62,0002.44,0001.32,0000.28,0000.43,0000.40,0000.85,0000.83,0000.69,16.9,23.5,,00.0,0671.9,30.9
2021-09-26T21:15:00Z,00000200,01000000,0004.38,0002.86,0001.72,0000.50,0000.74,0000.36,0000.89,0001.03,0001.03,16.9,23.5,,00.0,0671.9,30.9
2021-09-26T21:16:00Z,00000200,01000000,0004.80,0003.12,0001.89,0000.83,0000.62,0000.41,0001.15,0000.87,0000.31,17.0,23.6,,00.0,0672.0,30.9
2021-09-26T21:17:00Z,00000200,01000000,0003.88,0003.18,0001.49,0000.67,0001.02,0000.22,0000.58,0001.13,0000.98,17.1,23.6,,00.0,0672.0,30.9
2021-09-26T21:18:00Z,00000200,01000000,0004.41,0003.03,0001.58,0000.71,0000.60,0000.16,0001.20,0000.35,0000.10,17.1,23.6,,00.0,0672.0,30.9
2021-09-26T21:19:00Z,00000200,01000000,0004.61,0003.20,0001.69,0000.46,0000.48,0000.57,0000.70,0001.23,0000.78,17.2,23.7,,00.0,0672.0,30.9
2021-09-26T21:20:00Z,00000200,01000000,0003.94,0003.20,0001.81,0000.58,0000.47,0000.17,0000.96,0000.26,0000.62,17.2,23.7,,00.0,0672.0,30.9
2021-09-26T21:21:00Z,00000200,01000000,0004.03,0002.82,0001.41,0000.30,0000.40,0000.57,0000.45,0000.63,0000.18,17.2,23.7,,00.0,0672.0,30.9
2021-09-26T21:22:00Z,00000200,01000000,0002.78,0002.59,0001.13,-000.00,0000.67,-000.25,0000.74,0000.41,0000.12,17.1,23.6,,00.0,0672.0,30.9
2021-09-26T21:23:00Z,00000200,01000000,0003.82,0002.75,0001.52,0000.74,0000.20,0000.33,0000.56,0000.59,0000.82,17.0,23.6,,00.0,0672.0,30.9
2021-09-26T21:24:00Z,00000200,01000000,0002.97,0002.12,0001.00,0000.38,0000.39,0000.49,0000.40,0000.39,-000.05,16.9,23.5,,00.0,0671.9,30.8
2021-09-26T21:25:00Z,00000200,01000000,0002.42,0002.21,0000.96,0000.18,0000.55,0000.07,0000.67,0000.57,0000.89,16.9,23.5,,00.0,0671.9,30.8
2021-09-26T21:26:00Z,00000200,01000000,0003.02,0002.20,0001.13,0000.51,0000.58,0000.25,0001.00,0000.83,0000.21,16.8,23.5,,00.0,0671.9,30.8
2021-09-26T21:27:00Z,00000200,01000000,0002.96,0002.35,0001.04,0000.75,0000.53,0000.20,0000.46,0000.82,0000.71,16.8,23.5,,00.0,0672.0,30.8
2021-09-26T21:28:00Z,00000200,01000000,0003.82,0002.78,0001.66,0000.50,0000.62,0000.27,0000.95,0000.76,0000.93,16.9,23.5,,00.0,0672.0,30.8
2021-09-26T21:29:00Z,00000200,01000000,0004.47,0003.11,0001.93,0000.67,0000.50,0000.36,0000.66,0000.97,0000.23,16.9,23.5,,00.0,0672.0,30.8
2021-09-26T21:30:00Z,00000200,01000000,0003.82,0002.53,0001.67,0000.83,0000.35,0000.39,0001.07,0000.51,0000.69,17.0,23.5,,00.0,0672.0,30.9
2021-09-26T21:31:00Z,00000200,01000000,0003.61,0003.05,0001.34,0000.65,0000.23,0000.05,0001.16,0000.63,0000.56,17.0,23.5,,00.0,0672.0,30.9
2021-09-26T21:32:00Z,00000200,01000000,0004.05,0002.82,0001.72,0000.36,0000.40,0000.65,0000.31,0000.97,0000.73,17.1,23.6,,00.0,0672.0,30.9
2021-09-26T21:33:00Z,00000200,01000000,0004.38,0002.85,0001.71,0000.40,0000.42,0000.22,0001.14,0000.59,0000.52,17.2,23.6,,00.0,0672.1,30.9
2021-09-26T21:34:00Z,00000200,01000000,0003.81,0002.70,0001.63,-000.09,0000.32,0000.04,0000.58,0000.86,0000.54,17.2,23.6,,00.0,0672.0,30.9
2021-09-26T21:35:00Z,00000200,01000000,0003.35,0002.80,0001.57,0000.01,0000.35,0000.47,0000.41,0000.48,0000.48,17.3,23.6,,00.0,0672.0,30.9
2021-09-26T21:36:00Z,00000200,01000000,0004.04,0002.91,0001.84,0000.17,0000.75,0000.21,0000.74,0000.03,0000.04,17.2,23.6,,00.0,0672.0,30.9
2021-09-26T21:37:00Z,00000200,01000000,0002.55,0002.25,0001.21,0000.17,0000.39,0000.27,0000.67,0001.00,0000.51,17.2,23.6,,00.0,0671.9,30.9
2021-09-26T21:38:00Z,00000200,01000000,0003.85,0002.90,0001.59,0000.40,0000.35,0000.38,0000.30,0000.07,0000.17,17.1,23.6,,00.0,0671.9,30.9
2021-09-26T21:39:00Z,00000200,01000000,0003.56,0002.13,0001.28,0000.22,0000.53,0000.20,0000.73,0000.76,0000.47,17.0,23.5,,00.0,0671.9,30.8
2021-09-26T21:40:00Z,00000200,01000000,0002.59,0002.29,0001.11,0000.24,0000.27,0000.63,0000.91,0000.77,0000.55,16.9,23.5,,00.0,0671.9,30.8
2021-09-26T21:41:00Z,00000200,01000000,0003.07,0002.63,0001.21,-000.21,0000.28,0000.39,0000.70,0000.53,0000.49,16.9,23.5,,00.0,0672.0,30.8
2021-09-26T21:42:00Z,00000200,01000000,0002.95,0002.22,0001.37,0000.42,0000.31,0000.37,0000.42,0000.97,0000.71,16.9,23.5,,00.0,0671.9,30.8
2021-09-26T21:43:00Z,00000200,01000000,0002.86,0002.18,0001.46,0000.28,0000.58,0000.34,0000.79,0000.22,0000.39,16.9,23.5,,00.0,0672.0,30.8
2021-09-26T21:44:00Z,00000200,01000000,0003.84,0002.33,0001.50,0000.65,0000.94,0000.56,0000.80,0000.94,0000.47,16.9,23.5,,00.0,0672.0,30.8
2021-09-26T21:45:00Z,00000200,01000000,0003.74,0002.61,0001.62,0000.35,0000.48,0000.41,0000.59,0000.26,0000.68,17.0,23.5,,00.0,0672.0,30.9
2021-09-26T21:46:00Z,00000200,01000000,0003.84,0002.16,0001.45,0000.49,0000.15,0000.36,0001.07,0000.87,0000.59,17.0,23.5,,00.0,0671.9,30.9
2021-09-26T21:47:00Z,00000200,01000000,0002.95,0002.73,0001.21,-000.37,0000.58,0000.30,0000.03,0000.28,0000.27,17.1,23.5,,00.0,0671.9,30.9
2021-09-26T21:48:00Z,00000200,01000000,0003.81,0002.54,0001.09,0000.66,0000.56,0000.31,0000.82,0001.10,0000.28,17.2,23.6,,00.0,0672.0,30.9
2021-09-26T21:49:00Z,00000200,01000000,0003.79,0002.43,0001.54,0000.58,0000.38,0000.11,0000.36,0000.08,0000.44,17.2,23.6,,00.0,0672.0,30.9
2021-09-26T21:50:00Z,00000200,01000000,0002.19,0002.55,0001.13,0000.39,0000.48,-000.11,0000.86,0000.54,0000.33,17.2,23.6,,00.0,0671.9,30.9
2021-09-26T21:51:00Z,00000200,01000000,0002.69,0002.29,0001.48,0000.39,0000.60,0000.42,0000.36,0000.56,0000.34,17.2,23.6,,00.0,0671.9,30.9
2021-09-26T21:52:00Z,00000200,01000000,0003.30,0002.64,0001.42,0000.99,0000.74,0000.03,0000.46,0000.18,0000.20,17.1,23.6,,00.0,0671.9,30.9
2021-09-26T21:53:00Z,00000200,01000000,0003.57,0002.66,0001.50,0000.09,0000.51,0000.23,0000.42,0000.64,0000.47,17.0,23.5,,00.0,0671.9,30.9
2021-09-26T21:54:00Z,00000200,01000000,0003.30,0002.38,0001.13,-000.19,0000.73,0000.01,0000.83,0000.67,0000.33,16.9,23.5,,00.0,0671.9,30.8
2021-09-26T21:55:00Z,00000200,01000000,0003.40,0002.43,0001.48,0000.29,0000.65,0000.43,0000.71,0000.19,0000.54,16.9,23.5,,00.0,0671.9,30.8
2021-09-26T21:56:00Z,00000200,01000000,0003.02,0002.97,0001.41,0000.83,0000.53,0000.05,0001.09,0000.98,0000.67,16.8,23.4,,00.0,0672.0,30.8
2021-09-26T21:57:00Z,00000200,41000000,,,,,,,0000.72,0000.89,0000.67,16.8,23.4,,00.0,0671.9,30.8
2021-09-26T21:58:00Z,00000200,61000000,,,,,,,-000.38,-000.05,-000.21,16.6,23.6,,00.0,0671.0,30.8
2021-09-26T21:59:00Z,00000200,21000000,,,,,,,-000.40,-000.42,0000.12,16.6,23.7,,00.0,0671.0,30.8
